Location: Hopewell Observatory
(38.8698°N, 77.6988°W)
Time: 09:50:18
(UTC-04:00)

Cosmos 2219 - Pass Details

Date: 26 May 2018
Orbit: 834 x 860 km, 71.1° (Epoch: 24 June)

Event Time Altitude Azimuth Distance (km) Brightness Sun altitude
Exits shadow 22:34:49 38° 139° (SE) 1,287 3.6 -20.0°
Maximum altitude 22:36:05 44° 106° (ESE) 1,179 3.6 -20.1°
Drops below altitude 10° 22:41:30 10° 36° (NE) 2,501 5.9 -20.8°
Sets 22:44:03 0° 30° (NNE) 3,441 6.7 -21.1°
